Location: Buckeye Ditch
(40.9104°N, 122.9517°W)
Time: 11:56:16
(UTC+00:00)

BlueWalker 3 - Visible Passes

Search period start: 23 June 2024 00:00
Search period end: 03 July 2024 00:00
Orbit: 480 x 493 km, 53.2° (Epoch: 22 June)

Date Brightness Start Highest point End Pass type
(mag) Time Alt. Az. Time Alt. Az. Time Alt. Az.
23 Jun 4.9 05:34:53 10° WNW 05:37:34 18° NNW 05:40:15 10° NNE visible
23 Jun 5.2 07:15:16 10° NNW 07:16:55 12° N 07:18:36 10° NNE visible
23 Jun 4.3 08:53:10 10° NNW 08:56:12 23° NNE 08:59:13 10° ENE visible
23 Jun 1.7 10:30:56 10° NW 10:34:40 70° SW 10:38:22 10° SE visible
24 Jun 4.8 05:09:04 10° WNW 05:11:49 19° NNW 05:14:34 10° NNE visible
24 Jun 5.1 06:49:30 10° NNW 06:51:10 12° N 06:52:49 10° NNE visible
24 Jun 4.3 08:27:28 10° NNW 08:30:26 22° NNE 08:33:24 10° ENE visible
24 Jun 1.7 10:05:13 10° NW 10:08:50 75° WSW 10:08:50 75° WSW visible
25 Jun 4.8 04:43:14 10° WNW 04:46:03 20° NNW 04:48:51 10° NNE visible
25 Jun 5.0 06:23:44 10° NNW 06:25:23 12° N 06:27:02 10° NNE visible
25 Jun 4.4 08:01:46 10° NNW 08:04:40 21° NNE 08:07:29 10° ENE visible
25 Jun 3.0 09:39:28 10° NW 09:41:43 34° NW 09:41:43 34° NW visible
26 Jun 4.7 04:17:24 10° WNW 04:20:17 20° NNW 04:23:09 10° NNE visible
26 Jun 5.0 05:57:56 10° NNW 05:59:35 12° N 06:01:15 10° NNE visible
26 Jun 4.4 07:36:03 10° NNW 07:38:54 20° NNE 07:41:17 12° ENE visible
26 Jun 3.5 09:13:44 10° NW 09:15:33 27° NW 09:15:33 27° NW visible
27 Jun 4.9 05:32:08 10° NNW 05:33:47 12° N 05:35:27 10° NNE visible
27 Jun 4.4 07:10:19 10° NNW 07:13:08 19° NNE 07:15:29 12° ENE visible
27 Jun 3.6 08:47:59 10° NW 08:49:47 27° NW 08:49:47 27° NW visible
28 Jun 4.9 05:06:19 10° NNW 05:07:59 12° N 05:09:39 10° NNE visible
28 Jun 4.4 06:44:36 10° NNW 06:47:20 19° NNE 06:49:54 11° ENE visible
28 Jun 3.5 08:22:14 10° NW 08:24:11 29° NW 08:24:11 29° NW visible
29 Jun 4.8 04:40:29 10° NNW 04:42:10 12° N 04:43:51 10° NNE visible
29 Jun 4.4 06:18:51 10° NNW 06:21:32 18° NNE 06:24:12 10° ENE visible
29 Jun 3.3 07:56:28 10° NW 07:58:45 35° NW 07:58:45 35° NW visible
30 Jun 4.4 05:53:06 10° NNW 05:55:43 18° NNE 05:58:20 10° ENE visible
30 Jun 2.9 07:30:42 10° NW 07:33:23 43° NNW 07:33:23 43° NNW visible
01 Jul 4.4 05:27:21 10° NNW 05:29:54 17° NNE 05:32:27 10° ENE visible
01 Jul 2.5 07:04:56 10° NW 07:08:05 54° N 07:08:05 54° N visible
02 Jul 4.4 05:01:34 10° NNW 05:04:04 17° NNE 05:06:33 10° ENE visible
02 Jul 2.2 06:39:09 10° NW 06:42:51 59° NE 06:42:51 59° NE visible
